Home > Weather > Montpelier > Past weeks

Flag for U.S.A. Weather for the Past 2 Weeks in Montpelier, Vermont, U.S.A.

Now
13 °F

Passing clouds.


Feels Like: 1 °F
Forecast: -9 / 16 °F
Wind: 9 mph from South

Location: Knapp State Airport

Current Time: Feb 12, 2016 at 8:28:57 PM

Latest Report: Feb 12, 2016 at 6:51 PM


Visibility: 10 mi

Pressure: 29.96 "Hg

Humidity: 56%

Dew point: 0 °F

Location of MontpelierLocation

Historic Weather in Montpelier — Graph

°F

Montpelier Temperature Yesterday

Maximum temperature yesterday: 17 °F (at 1:51 AM)
Minimum temperature yesterday: -2 °F (at 10:51 PM)
Average temperature yesterday: 10 °F

High & Low Weather Summary for the Past Weeks

 TemperatureHumidityPressure
High54 °F (Feb 1, 6:51 AM)100% (Feb 3, 10:58 PM)30.45 "Hg (Feb 3, 10:58 PM)
Low-7 °F (Feb 12, 6:51 AM)26% (Feb 8, 2:51 PM)29.42 "Hg (Jan 29, 2:01 PM)
Average27 °F71%29.93 "Hg
* Reported Jan 28 5:51 PM — Feb 12 5:51 PM, Montpelier, Weather by CustomWeather, © 2016

Note: Actual official high and low records may vary slightly from our data, if they occured in-between our weather recording intervals... More about our weather records

Advertising

Montpelier Weather History for the Previous 24 Hours

 ConditionsComfort  
Time TempWeatherWind HumidityBarometerVisibility
5:51 PM
Fri, Feb 12
14 °FClear.10 mph53%29.97 "Hg10 mi
4:51 PM17 °FSunny.10 mph47%29.97 "Hg10 mi
3:51 PM18 °FPartly sunny.8 mph47%29.98 "Hg10 mi
2:51 PM18 °FBroken clouds.No wind47%29.99 "Hg10 mi
1:51 PM17 °FOvercast.8 mph47%30.00 "Hg10 mi
12:51 PM14 °FBroken clouds.8 mph56%30.03 "Hg8 mi
11:51 AM11 °FPassing clouds.16 mph53%30.09 "Hg10 mi
10:51 AM8 °FPartly sunny.12 mph54%30.13 "Hg10 mi
9:51 AM5 °FSunny.6 mph57%30.15 "Hg10 mi
8:51 AM0 °FSunny.7 mph68%30.16 "Hg10 mi
7:51 AM-3 °FSunny.No wind75%30.18 "Hg10 mi
6:51 AM-7 °FClear.5 mph79%30.18 "Hg10 mi
5:51 AM-5 °FClear.6 mphN/A30.17 "Hg10 mi
4:51 AM-4 °FClear.5 mph79%30.16 "Hg10 mi
3:51 AM-3 °FPassing clouds.8 mph75%30.15 "Hg10 mi
2:51 AM-2 °FOvercast.8 mph72%30.15 "Hg5 mi
1:58 AM-2 °FLight snow. Overcast.7 mph75%30.05 "Hg2 mi
12:51 AM-2 °FOvercast.10 mph72%30.13 "Hg5 mi
11:51 PM
Thu, Feb 11
-2 °FOvercast.18 mphN/A30.11 "Hg7 mi
10:51 PM-2 °FOvercast.12 mph72%30.10 "Hg3 mi
9:59 PM-1 °FLight snow. Overcast.13 mph71%30.00 "Hg2 mi
8:51 PM0 °FLight snow. Overcast.9 mph79%30.05 "Hg2 mi
Weather by CustomWeather, © 2016

See weather overviewHow to use our weather pages